Weather in Yakakent

Turkey     41°37′52″N   35°31′49″E
temp.,
°C
wind,
m/s
gust,
m/s
humid.,
%
clouds,
%
prec.,
mm/h
press.,
hPa
HPBL,
m
5 december, sun
sun500:00+14ssw5660100 0.0 101055
03:00+13wnw567198 0.0 1011118
06:00+12nw4592100 0.0 1012277
09:00+12nw678880 0.0 1014413
12:00+12ne228383 0.0 1014275
15:00+12e338375 0.0 1014287
18:00+12ese668625 0.0 1014334
21:00+12ese66905 0.0 1014251
6 december, mon
mon600:00+12se45785 0.0 101497
03:00+13sse236937 0.0 101445
06:00+13ssw33665 0.0 101438
09:00+14ssw33645 0.0 101546
12:00+15ssw226029 0.0 101559
15:00+16ssw23585 0.0 101461
18:00+15ssw44630 0.0 101525
21:00+14sw44620 0.0 101529
7 december, tue
tue700:00+14ssw45625 0.0 101540
03:00+14ssw566246 0.0 101453
06:00+14ssw56630 0.0 101354
09:00+14ssw78620 0.0 101366
12:00+16s55520 0.0 101187
15:00+17s44510 0.0 100873
18:00+15s55600 0.0 100736
21:00+14sse55595 0.0 100643
8 december, wed
wed800:00+15ssw795299 0.0 100583
03:00+14sse67532 0.0 100458
06:00+13ese456092 0.0 100443
09:00+14se8955100 0.0 1005117
12:00+14se2363100 0.0 1006144
15:00+15sw2260100 0.0 1006126
18:00+13wnw7976100 0.0 1009178
21:00+12nw578517 0.0 1012231
9 december, thu
thu900:00+11nw678798 0.0 1014532
03:00+11nnw6789100 0.9 1016575
06:00+10nw7888100 1.6 1018573
09:00+11nw4484100 2.1 1020506
12:00+11ene118199 0.2 1020363
15:00+11ene238139 0.2 1020382
18:00+11ese778426 0.0 1021481
21:00+11ese678813 0.0 1021398